| time (UTC) | temp C | wind direction | speed KPH | gust KPH | rain 1hr cm | rain 24hr cm | rain mn cm | humidity % | barometer mb |
| 20260504070327 | 11 | 4 | 1.6 | 3.2 | 0.00 | 0.00 | 0.00 | 53 | 1008.8 |
| 20260504050327 | 11 | 141 | 0.0 | 1.6 | 0.00 | 0.00 | 0.00 | 58 | 1009.0 |
| 20260504045828 | 11 | 174 | 0.0 | 1.6 | 0.00 | 0.00 | 0.00 | 59 | 1009.0 |
| 20260504045327 | 10 | 128 | 0.0 | 1.6 | 0.00 | 0.00 | 0.00 | 58 | 1009.0 |
| 20260504044827 | 10 | 13 | 0.0 | 3.2 | 0.00 | 0.00 | 0.00 | 61 | 1009.0 |
| 20260504044329 | 10 | 210 | 0.0 | 3.2 | 0.00 | 0.00 | 0.00 | 60 | 1009.1 |
| 20260504043827 | 10 | 327 | 1.6 | 3.2 | 0.00 | 0.00 | 0.00 | 61 | 1009.1 |
| 20260504043327 | 10 | 11 | 1.6 | 1.6 | 0.00 | 0.00 | 0.00 | 59 | 1009.1 |
| 20260504042828 | 10 | 54 | 1.6 | 1.6 | 0.00 | 0.00 | 0.00 | 61 | 1009.1 |
| 20260504042327 | 10 | 289 | 1.6 | 1.6 | 0.00 | 0.00 | 0.00 | 61 | 1009.1 |
| 20260504041827 | 10 | 264 | 0.0 | 1.6 | 0.00 | 0.00 | 0.00 | 63 | 1009.2 |
| 20260504041327 | 10 | 210 | 1.6 | 3.2 | 0.00 | 0.00 | 0.00 | 64 | 1009.2 |
| 20260504040827 | 10 | 231 | 0.0 | 1.6 | 0.00 | 0.00 | 0.00 | 65 | 1009.2 |
| 20260504040327 | 10 | 228 | 0.0 | 1.6 | 0.00 | 0.00 | 0.00 | 67 | 1009.4 |
| 20260504035827 | 10 | 239 | 0.0 | 1.6 | 0.00 | 0.00 | 0.03 | 66 | 1009.4 |
| 20260504035327 | 10 | 261 | 0.0 | 1.6 | 0.00 | 0.00 | 0.03 | 66 | 1009.4 |
| 20260504034827 | 10 | 255 | 1.6 | 3.2 | 0.00 | 0.00 | 0.03 | 70 | 1009.5 |
| 20260504034327 | 10 | 243 | 1.6 | 1.6 | 0.00 | 0.00 | 0.03 | 67 | 1009.5 |
| 20260504033827 | 10 | 168 | 0.0 | 1.6 | 0.00 | 0.00 | 0.03 | 68 | 1009.6 |
| 20260504033328 | 10 | 207 | 1.6 | 1.6 | 0.00 | 0.00 | 0.03 | 67 | 1009.8 |
| 20260504032827 | 10 | 264 | 0.0 | 1.6 | 0.00 | 0.00 | 0.03 | 69 | 1009.7 |
| 20260504032327 | 10 | 329 | 0.0 | 1.6 | 0.00 | 0.00 | 0.03 | 68 | 1009.7 |
| 20260504031828 | 10 | 10 | 0.0 | 0.0 | 0.00 | 0.00 | 0.03 | 69 | 1009.7 |
| 20260504031327 | 10 | 250 | 0.0 | 1.6 | 0.00 | 0.00 | 0.03 | 69 | 1009.7 |
| 20260504030827 | 10 | 291 | 0.0 | 1.6 | 0.00 | 0.00 | 0.03 | 68 | 1009.8 |
| 20260504030327 | 10 | 237 | 0.0 | 1.6 | 0.03 | 0.00 | 0.03 | 68 | 1009.8 |
| 20260504025827 | 10 | 238 | 0.0 | 1.6 | 0.03 | 0.00 | 0.03 | 69 | 1009.9 |
| 20260504025327 | 10 | 185 | 0.0 | 1.6 | 0.03 | 0.00 | 0.03 | 68 | 1009.9 |
| 20260504024827 | 10 | 142 | 0.0 | 1.6 | 0.03 | 0.00 | 0.03 | 67 | 1010.0 |
| 20260504024327 | 10 | 240 | 1.6 | 3.2 | 0.03 | 0.00 | 0.03 | 66 | 1010.0 |
| 20260504023827 | 10 | 264 | 0.0 | 3.2 | 0.03 | 0.00 | 0.03 | 66 | 1010.1 |
| 20260504023327 | 10 | 248 | 3.2 | 9.7 | 0.03 | 0.00 | 0.03 | 67 | 1010.2 |
| 20260504022827 | 10 | 257 | 1.6 | 3.2 | 0.03 | 0.00 | 0.03 | 67 | 1010.3 |
| 20260504022327 | 10 | 248 | 3.2 | 4.8 | 0.03 | 0.00 | 0.03 | 67 | 1010.4 |
| 20260504021829 | 10 | 254 | 3.2 | 9.7 | 0.03 | 0.00 | 0.03 | 68 | 1010.5 |
| 20260504021327 | 10 | 258 | 6.4 | 14.5 | 0.03 | 0.00 | 0.03 | 70 | 1010.6 |
| 20260504020827 | 10 | 226 | 3.2 | 6.4 | 0.00 | 0.00 | 0.03 | 70 | 1010.8 |
| 20260504020328 | 11 | 287 | 3.2 | 8.0 | 0.00 | 0.00 | 0.00 | 69 | 1011.1 |
| 20260504015827 | 11 | 268 | 4.8 | 9.7 | 0.00 | 0.00 | 0.00 | 66 | 1011.2 |
| 20260504015328 | 11 | 353 | 3.2 | 4.8 | 0.00 | 0.00 | 0.00 | 60 | 1011.2 |
| 20260504014827 | 12 | 229 | 3.2 | 6.4 | 0.00 | 0.00 | 0.00 | 57 | 1010.8 |
| 20260504014327 | 12 | 265 | 8.0 | 14.5 | 0.00 | 0.00 | 0.00 | 56 | 1010.5 |
| 20260504013827 | 12 | 256 | 3.2 | 4.8 | 0.00 | 0.00 | 0.00 | 55 | 1010.5 |
| 20260504013328 | 12 | 280 | 3.2 | 6.4 | 0.00 | 0.00 | 0.00 | 54 | 1010.4 |
| 20260504012828 | 12 | 353 | 3.2 | 6.4 | 0.00 | 0.00 | 0.00 | 53 | 1010.2 |
| 20260504012328 | 12 | 272 | 3.2 | 6.4 | 0.00 | 0.00 | 0.00 | 52 | 1010.2 |
| 20260504011827 | 12 | 268 | 4.8 | 11.3 | 0.00 | 0.00 | 0.00 | 52 | 1010.1 |
| 20260504011327 | 12 | 251 | 4.8 | 6.4 | 0.00 | 0.00 | 0.00 | 51 | 1010.0 |
| 20260504010827 | 12 | 261 | 8.0 | 14.5 | 0.00 | 0.00 | 0.00 | 50 | 1009.9 |
| 20260504010327 | 12 | 279 | 3.2 | 8.0 | 0.00 | 0.00 | 0.00 | 50 | 1009.9 |
| 20260504005827 | 12 | 225 | 8.0 | 12.9 | 0.00 | 0.00 | 0.00 | 49 | 1009.7 |
| 20260504005328 | 12 | 263 | 3.2 | 9.7 | 0.00 | 0.00 | 0.00 | 50 | 1009.7 |
| 20260504004827 | 12 | 253 | 8.0 | 17.7 | 0.00 | 0.00 | 0.00 | 50 | 1009.7 |
| 20260504004327 | 11 | 244 | 0.0 | 3.2 | 0.00 | 0.00 | 0.00 | 54 | 1009.8 |
| 20260504003827 | 11 | 282 | 1.6 | 3.2 | 0.00 | 0.00 | 0.00 | 51 | 1009.5 |
| 20260504003327 | 11 | 283 | 3.2 | 8.0 | 0.00 | 0.00 | 0.00 | 55 | 1009.7 |
| 20260504002828 | 11 | 159 | 0.0 | 3.2 | 0.00 | 0.00 | 0.00 | 55 | 1009.7 |
| 20260504002328 | 11 | 20 | 1.6 | 3.2 | 0.00 | 0.00 | 0.00 | 57 | 1009.6 |
| 20260504001827 | 11 | 302 | 1.6 | 3.2 | 0.00 | 0.00 | 0.00 | 58 | 1009.6 |
| 20260504001327 | 11 | 176 | 1.6 | 1.6 | 0.00 | 0.00 | 0.00 | 55 | 1009.6 |
| 20260504000827 | 11 | 217 | 0.0 | 1.6 | 0.00 | 0.00 | 0.00 | 56 | 1009.7 |
| 20260504000327 | 11 | 265 | 1.6 | 1.6 | 0.00 | 0.00 | 0.00 | 54 | 1009.7 |
| 20260503235827 | 11 | 35 | 0.0 | 1.6 | 0.00 | 0.00 | 0.00 | 54 | 1009.6 |
| 20260503235327 | 11 | 221 | 4.8 | 8.0 | 0.00 | 0.00 | 0.00 | 52 | 1009.7 |
| 20260503234827 | 12 | 354 | 1.6 | 3.2 | 0.00 | 0.00 | 0.00 | 52 | 1009.8 |
| 20260503234327 | 12 | 263 | 3.2 | 8.0 | 0.00 | 0.00 | 0.00 | 51 | 1009.9 |
| 20260503233827 | 12 | 230 | 4.8 | 8.0 | 0.00 | 0.00 | 0.00 | 51 | 1009.9 |
| 20260503233327 | 12 | 218 | 3.2 | 6.4 | 0.00 | 0.00 | 0.00 | 50 | 1010.1 |
| 20260503232827 | 12 | 265 | 6.4 | 12.9 | 0.00 | 0.00 | 0.00 | 49 | 1010.0 |
| 20260503232327 | 12 | 266 | 6.4 | 12.9 | 0.00 | 0.00 | 0.00 | 47 | 1009.9 |
| 20260503231827 | 12 | 11 | 3.2 | 4.8 | 0.00 | 0.00 | 0.00 | 48 | 1009.9 |
| 20260503231328 | 12 | 40 | 3.2 | 6.4 | 0.00 | 0.00 | 0.00 | 48 | 1009.8 |
| 20260503230827 | 12 | 288 | 3.2 | 4.8 | 0.00 | 0.00 | 0.00 | 48 | 1009.9 |
| 20260503230327 | 12 | 247 | 1.6 | 4.8 | 0.00 | 0.00 | 0.00 | 47 | 1009.8 |
| 20260503225827 | 12 | 265 | 1.6 | 3.2 | 0.00 | 0.00 | 0.00 | 48 | 1009.7 |
| 20260503225327 | 12 | 287 | 3.2 | 6.4 | 0.00 | 0.00 | 0.00 | 46 | 1009.6 |
| 20260503224827 | 12 | 273 | 3.2 | 6.4 | 0.00 | 0.00 | 0.00 | 46 | 1009.6 |
| 20260503224327 | 12 | 277 | 1.6 | 4.8 | 0.00 | 0.00 | 0.00 | 47 | 1009.5 |
| 20260503223828 | 13 | 265 | 3.2 | 8.0 | 0.00 | 0.00 | 0.00 | 46 | 1009.5 |
| 20260503223327 | 13 | 193 | 1.6 | 3.2 | 0.00 | 0.00 | 0.00 | 45 | 1009.6 |
| 20260503222827 | 13 | 0 | 0.0 | 1.6 | 0.00 | 0.00 | 0.00 | 44 | 1009.5 |
| 20260503222327 | 13 | 255 | 3.2 | 9.7 | 0.00 | 0.00 | 0.00 | 47 | 1009.4 |
| 20260503221827 | 13 | 290 | 3.2 | 3.2 | 0.00 | 0.00 | 0.00 | 45 | 1009.4 |
| 20260503221327 | 12 | 210 | 6.4 | 12.9 | 0.00 | 0.00 | 0.00 | 46 | 1009.5 |
| 20260503220827 | 12 | 261 | 1.6 | 3.2 | 0.00 | 0.00 | 0.00 | 46 | 1009.7 |
| 20260503220327 | 12 | 260 | 1.6 | 4.8 | 0.00 | 0.00 | 0.00 | 47 | 1009.7 |
| 20260503215829 | 13 | 237 | 3.2 | 6.4 | 0.00 | 0.00 | 0.00 | 48 | 1009.7 |
| 20260503215327 | 13 | 327 | 1.6 | 3.2 | 0.00 | 0.00 | 0.00 | 47 | 1009.7 |
| 20260503214827 | 13 | 297 | 3.2 | 4.8 | 0.00 | 0.00 | 0.00 | 47 | 1009.6 |
| 20260503214328 | 13 | 240 | 6.4 | 9.7 | 0.00 | 0.00 | 0.00 | 46 | 1009.6 |
| 20260503213827 | 12 | 334 | 1.6 | 3.2 | 0.00 | 0.00 | 0.00 | 49 | 1009.6 |
| 20260503213327 | 12 | 223 | 3.2 | 4.8 | 0.00 | 0.00 | 0.00 | 48 | 1009.6 |
| 20260503212827 | 12 | 286 | 3.2 | 6.4 | 0.00 | 0.00 | 0.00 | 48 | 1009.7 |
| 20260503212328 | 13 | 0 | 3.2 | 8.0 | 0.00 | 0.00 | 0.00 | 47 | 1009.6 |
| 20260503211827 | 13 | 345 | 3.2 | 8.0 | 0.00 | 0.00 | 0.00 | 47 | 1009.6 |
| 20260503211327 | 13 | 251 | 3.2 | 4.8 | 0.00 | 0.00 | 0.00 | 47 | 1009.6 |
| 20260503210827 | 13 | 273 | 4.8 | 9.7 | 0.00 | 0.00 | 0.00 | 46 | 1009.3 |
| 20260503210327 | 13 | 293 | 3.2 | 4.8 | 0.00 | 0.00 | 0.00 | 47 | 1009.4 |
| 20260503205827 | 13 | 261 | 8.0 | 12.9 | 0.00 | 0.00 | 0.00 | 47 | 1009.7 |
| 20260503205327 | 13 | 282 | 1.6 | 6.4 | 0.00 | 0.00 | 0.00 | 48 | 1009.6 |
| 20260503204827 | 13 | 7 | 3.2 | 4.8 | 0.00 | 0.00 | 0.00 | 47 | 1009.7 |
| 20260503204327 | 13 | 326 | 1.6 | 3.2 | 0.00 | 0.00 | 0.00 | 47 | 1009.8 |
| 20260503203827 | 13 | 46 | 3.2 | 8.0 | 0.00 | 0.00 | 0.00 | 46 | 1009.7 |
| 20260503203327 | 13 | 252 | 6.4 | 14.5 | 0.00 | 0.00 | 0.00 | 45 | 1009.5 |
| 20260503202827 | 13 | 228 | 4.8 | 12.9 | 0.00 | 0.00 | 0.00 | 45 | 1009.2 |
| 20260503202328 | 12 | 276 | 6.4 | 11.3 | 0.00 | 0.00 | 0.00 | 47 | 1009.5 |
| 20260503201827 | 12 | 278 | 3.2 | 4.8 | 0.00 | 0.00 | 0.00 | 47 | 1010.0 |
| 20260503201327 | 12 | 334 | 4.8 | 9.7 | 0.00 | 0.00 | 0.00 | 47 | 1010.2 |
| 20260503200827 | 12 | 263 | 4.8 | 9.7 | 0.00 | 0.00 | 0.00 | 46 | 1010.3 |
| 20260503200328 | 12 | 320 | 1.6 | 3.2 | 0.00 | 0.00 | 0.00 | 47 | 1010.4 |
| 20260503195827 | 12 | 261 | 3.2 | 6.4 | 0.00 | 0.00 | 0.00 | 47 | 1010.4 |
| 20260503195327 | 12 | 242 | 3.2 | 8.0 | 0.00 | 0.00 | 0.00 | 46 | 1010.4 |
| 20260503194827 | 12 | 293 | 3.2 | 6.4 | 0.00 | 0.00 | 0.00 | 47 | 1010.4 |
| 20260503194327 | 12 | 236 | 6.4 | 16.1 | 0.00 | 0.00 | 0.00 | 46 | 1010.6 |
| 20260503193829 | 12 | 280 | 1.6 | 3.2 | 0.00 | 0.00 | 0.00 | 46 | 1010.6 |
| 20260503193327 | 12 | 293 | 1.6 | 3.2 | 0.00 | 0.00 | 0.00 | 46 | 1010.7 |
| 20260503192827 | 12 | 210 | 6.4 | 11.3 | 0.00 | 0.00 | 0.00 | 43 | 1010.7 |
| 20260503192327 | 13 | 261 | 6.4 | 11.3 | 0.00 | 0.00 | 0.00 | 44 | 1010.7 |
| 20260503191827 | 13 | 228 | 6.4 | 9.7 | 0.00 | 0.00 | 0.00 | 42 | 1010.4 |
| 20260503191327 | 13 | 11 | 3.2 | 8.0 | 0.00 | 0.00 | 0.00 | 41 | 1010.0 |
| 20260503190829 | 13 | 220 | 6.4 | 11.3 | 0.00 | 0.00 | 0.00 | 43 | 1010.6 |
| 20260503190327 | 13 | 267 | 8.0 | 12.9 | 0.00 | 0.00 | 0.00 | 41 | 1010.6 |
| 20260503185828 | 14 | 244 | 8.0 | 11.3 | 0.00 | 0.00 | 0.00 | 40 | 1010.2 |
| 20260503185328 | 13 | 345 | 4.8 | 8.0 | 0.00 | 0.00 | 0.00 | 40 | 1010.0 |
| 20260503184827 | 13 | 17 | 4.8 | 9.7 | 0.00 | 0.00 | 0.00 | 39 | 1010.5 |
| 20260503184327 | 13 | 341 | 3.2 | 8.0 | 0.00 | 0.00 | 0.00 | 42 | 1010.2 |
| 20260503183827 | 13 | 317 | 3.2 | 6.4 | 0.00 | 0.00 | 0.00 | 40 | 1010.7 |
| 20260503183327 | 13 | 257 | 3.2 | 6.4 | 0.00 | 0.00 | 0.00 | 40 | 1010.7 |
| 20260503182827 | 13 | 264 | 6.4 | 11.3 | 0.00 | 0.00 | 0.00 | 41 | 1011.0 |
| 20260503182327 | 14 | 21 | 3.2 | 4.8 | 0.00 | 0.00 | 0.00 | 38 | 1010.7 |
| 20260503181827 | 13 | 256 | 4.8 | 6.4 | 0.00 | 0.00 | 0.00 | 40 | 1010.6 |
| 20260503181327 | 13 | 256 | 4.8 | 8.0 | 0.00 | 0.00 | 0.00 | 43 | 1010.6 |
| 20260503180827 | 13 | 11 | 4.8 | 6.4 | 0.00 | 0.00 | 0.00 | 39 | 1010.6 |
| 20260503180327 | 13 | 40 | 3.2 | 4.8 | 0.00 | 0.00 | 0.00 | 39 | 1010.6 |
| 20260503175827 | 13 | 18 | 3.2 | 6.4 | 0.00 | 0.00 | 0.00 | 39 | 1010.8 |
| 20260503175327 | 12 | 319 | 3.2 | 8.0 | 0.00 | 0.00 | 0.00 | 40 | 1011.1 |
| 20260503174828 | 12 | 291 | 4.8 | 8.0 | 0.00 | 0.00 | 0.00 | 40 | 1011.1 |
| 20260503174327 | 12 | 230 | 11.3 | 22.5 | 0.00 | 0.00 | 0.00 | 39 | 1011.3 |
| 20260503173827 | 12 | 304 | 3.2 | 6.4 | 0.00 | 0.00 | 0.00 | 42 | 1011.2 |
| 20260503173327 | 13 | 234 | 3.2 | 8.0 | 0.00 | 0.00 | 0.00 | 41 | 1011.1 |
| 20260503172827 | 12 | 10 | 3.2 | 6.4 | 0.00 | 0.00 | 0.00 | 38 | 1011.2 |
| 20260503172330 | 12 | 28 | 3.2 | 6.4 | 0.00 | 0.00 | 0.00 | 39 | 1011.2 |
| 20260503171827 | 12 | 306 | 4.8 | 8.0 | 0.00 | 0.00 | 0.00 | 40 | 1011.3 |
| 20260503171327 | 12 | 224 | 3.2 | 8.0 | 0.00 | 0.00 | 0.00 | 40 | 1011.2 |
| 20260503170827 | 12 | 13 | 3.2 | 6.4 | 0.00 | 0.00 | 0.00 | 41 | 1011.2 |
| 20260503170329 | 12 | 273 | 4.8 | 8.0 | 0.00 | 0.00 | 0.00 | 39 | 1011.4 |
| 20260503150828 | 10 | 357 | 4.8 | 9.7 | 0.00 | 0.00 | 0.00 | 46 | 1012.6 |
| 20260503150327 | 10 | 2 | 3.2 | 4.8 | 0.00 | 0.00 | 0.00 | 47 | 1012.3 |
| 20260503131327 | 8 | 39 | 3.2 | 6.4 | 0.00 | 0.00 | 0.00 | 62 | 1013.0 |
| 20260503130827 | 8 | 266 | 3.2 | 8.0 | 0.00 | 0.00 | 0.00 | 62 | 1013.0 |
| 20260503130327 | 8 | 307 | 3.2 | 9.7 | 0.00 | 0.00 | 0.00 | 60 | 1013.0 |
| 20260503110827 | 4 | 305 | 1.6 | 4.8 | 0.00 | 0.00 | 0.00 | 78 | 1013.0 |
| 20260503110327 | 3 | 223 | 1.6 | 3.2 | 0.00 | 0.00 | 0.00 | 80 | 1013.1 |
| 20260503090327 | 3 | 208 | 1.6 | 4.8 | 0.00 | 0.00 | 0.00 | 81 | 1012.9 |
| 20260503081329 | 3 | 221 | 3.2 | 4.8 | 0.00 | 0.00 | 0.00 | 80 | 1013.0 |
| 20260503080827 | 3 | 244 | 1.6 | 6.4 | 0.00 | 0.00 | 0.00 | 80 | 1013.0 |
| 20260503080327 | 3 | 262 | 3.2 | 9.7 | 0.00 | 0.00 | 0.00 | 80 | 1012.9 |
| 20260503072827 | 3 | 263 | 3.2 | 4.8 | 0.00 | 0.00 | 0.00 | 82 | 1012.9 |